• In Russia
  • List of Countries
  • For 7 days
  • Water Temperature
  • Satellite Maps
  • Weather Map
  • Weather Widgets
  • user-avatar
    Login

    Hourly Weather Mezobereny

    Today, 21 August, Monday

    Time Temperature Precipitation Wind Pressure Humidity
    00:00 +17°C° 0 mm 3 mps 756 mmHg 80%
    01:00 +16°C° 0 mm 2 mps 756 mmHg 80%
    02:00 +16°C° 0 mm 2 mps 756 mmHg 80%
    03:00 +14°C° 0 mm 3 mps 756 mmHg 80%
    04:00 +13°C° 0 mm 3 mps 756 mmHg 80%
    05:00 +14°C° 0 mm 3 mps 756 mmHg 73%
    06:00 +15°C° 0 mm 4 mps 756 mmHg 66%
    07:00 +17°C° 0 mm 4 mps 756 mmHg 59%
    08:00 +19°C° 0 mm 4 mps 756 mmHg 53%
    09:00 +21°C° 0 mm 5 mps 756 mmHg 46%
    10:00 +23°C° 0 mm 5 mps 756 mmHg 40%
    11:00 +25°C° 0 mm 5 mps 756 mmHg 37%
    12:00 +25°C° 0 mm 5 mps 755 mmHg 34%
    13:00 +26°C° 0 mm 5 mps 755 mmHg 32%
    14:00 +26°C° 0 mm 5 mps 755 mmHg 32%
    15:00 +26°C° 0 mm 5 mps 754 mmHg 32%
    16:00 +26°C° 0 mm 5 mps 754 mmHg 31%
    17:00 +25°C° 0 mm 4 mps 754 mmHg 36%
    18:00 +22°C° 0 mm 3 mps 755 mmHg 40%
    19:00 +20°C° 0 mm 3 mps 755 mmHg 45%
    20:00 +19°C° 0 mm 3 mps 755 mmHg 47%
    21:00 +19°C° 0 mm 3 mps 755 mmHg 50%
    22:00 +18°C° 0 mm 3 mps 756 mmHg 52%
    23:00 +17°C° 0 mm 3 mps 756 mmHg 55%

    Tomorrow, 22 August, Tuesday

    Time Temperature Precipitation Wind Pressure Humidity
    00:00 +17°C° 0 mm 2 mps 756 mmHg 59%
    01:00 +16°C° 0 mm 2 mps 756 mmHg 62%
    02:00 +15°C° 0 mm 2 mps 756 mmHg 65%
    03:00 +15°C° 0 mm 2 mps 756 mmHg 67%
    04:00 +14°C° 0 mm 2 mps 756 mmHg 70%
    05:00 +16°C° 0 mm 2 mps 756 mmHg 66%
    06:00 +17°C° 0 mm 2 mps 757 mmHg 62%
    07:00 +18°C° 0 mm 3 mps 757 mmHg 58%
    08:00 +20°C° 0 mm 3 mps 757 mmHg 52%
    09:00 +22°C° 0 mm 3 mps 757 mmHg 45%
    10:00 +24°C° 0 mm 3 mps 757 mmHg 39%
    11:00 +25°C° 0 mm 3 mps 756 mmHg 36%
    12:00 +26°C° 0 mm 3 mps 756 mmHg 34%
    13:00 +27°C° 0 mm 3 mps 755 mmHg 31%
    14:00 +27°C° 0 mm 3 mps 755 mmHg 30%
    15:00 +27°C° 0 mm 3 mps 755 mmHg 29%
    16:00 +28°C° 0 mm 3 mps 754 mmHg 28%
    17:00 +26°C° 0 mm 2 mps 754 mmHg 32%
    18:00 +24°C° 0 mm 2 mps 754 mmHg 35%
    19:00 +23°C° 0 mm 2 mps 754 mmHg 39%
    20:00 +21°C° 0 mm 2 mps 754 mmHg 41%
    21:00 +20°C° 0 mm 2 mps 754 mmHg 43%
    22:00 +19°C° 0 mm 3 mps 754 mmHg 46%
    23:00 +19°C° 0 mm 3 mps 754 mmHg 50%

    Day after tomorrow, 23 August, Wednesday

    Time Temperature Precipitation Wind Pressure Humidity
    00:00 +18°C° 0 mm 3 mps 754 mmHg 54%
    01:00 +17°C° 0 mm 3 mps 754 mmHg 59%
    02:00 +16°C° 0 mm 2 mps 754 mmHg 64%
    03:00 +15°C° 0 mm 2 mps 754 mmHg 70%
    04:00 +15°C° 0 mm 2 mps 755 mmHg 75%
    05:00 +16°C° 0 mm 2 mps 755 mmHg 71%
    06:00 +17°C° 0 mm 2 mps 755 mmHg 67%
    07:00 +18°C° 0 mm 2 mps 756 mmHg 63%
    08:00 +19°C° 0 mm 2 mps 756 mmHg 56%
    09:00 +21°C° 0 mm 2 mps 756 mmHg 49%
    10:00 +24°C° 0 mm 2 mps 756 mmHg 42%
    11:00 +24°C° 0 mm 2 mps 756 mmHg 38%
    12:00 +25°C° 0 mm 2 mps 756 mmHg 35%
    13:00 +26°C° 0 mm 2 mps 756 mmHg 31%
    14:00 +26°C° 0 mm 2 mps 755 mmHg 29%
    15:00 +27°C° 0 mm 2 mps 755 mmHg 28%
    16:00 +27°C° 0 mm 2 mps 755 mmHg 26%
    17:00 +25°C° 0 mm 2 mps 755 mmHg 30%
    18:00 +23°C° 0 mm 2 mps 756 mmHg 34%
    19:00 +20°C° 0 mm 2 mps 756 mmHg 37%
    20:00 +19°C° 0 mm 2 mps 756 mmHg 41%
    21:00 +18°C° 0 mm 2 mps 756 mmHg 45%
    22:00 +17°C° 0 mm 2 mps 756 mmHg 49%
    23:00 +17°C° 0 mm 2 mps 757 mmHg 51%

    24 August, Thursday

    Time Temperature Precipitation Wind Pressure Humidity
    00:00 +16°C° 0 mm 2 mps 757 mmHg 52%
    01:00 +16°C° 0 mm 1 mps 757 mmHg 54%
    02:00 +15°C° 0 mm 1 mps 757 mmHg 55%
    03:00 +15°C° 0 mm 1 mps 757 mmHg 56%
    04:00 +15°C° 0 mm 1 mps 757 mmHg 57%
    05:00 +16°C° 0 mm 1 mps 757 mmHg 53%
    06:00 +18°C° 0 mm 1 mps 757 mmHg 49%
    07:00 +20°C° 0 mm 1 mps 757 mmHg 45%
    08:00 +21°C° 0 mm 2 mps 757 mmHg 40%
    09:00 +24°C° 0 mm 2 mps 757 mmHg 35%
    10:00 +26°C° 0 mm 2 mps 758 mmHg 29%
    11:00 +27°C° 0 mm 2 mps 757 mmHg 27%
    12:00 +29°C° 0 mm 2 mps 757 mmHg 25%
    13:00 +30°C° 0 mm 2 mps 757 mmHg 23%
    14:00 +30°C° 0 mm 2 mps 757 mmHg 22%
    15:00 +30°C° 0 mm 2 mps 756 mmHg 22%
    16:00 +31°C° 0 mm 2 mps 756 mmHg 21%
    17:00 +29°C° 0 mm 2 mps 756 mmHg 25%
    18:00 +26°C° 0 mm 2 mps 756 mmHg 28%
    19:00 +24°C° 0 mm 2 mps 756 mmHg 31%
    20:00 +23°C° 0 mm 2 mps 756 mmHg 33%
    21:00 +21°C° 0 mm 2 mps 757 mmHg 34%
    22:00 +21°C° 0 mm 2 mps 757 mmHg 35%
    23:00 +20°C° 0 mm 2 mps 757 mmHg 37%

    25 August, Friday

    Time Temperature Precipitation Wind Pressure Humidity
    00:00 +20°C° 0 mm 2 mps 757 mmHg 38%
    01:00 +19°C° 0 mm 2 mps 757 mmHg 39%
    02:00 +19°C° 0 mm 2 mps 757 mmHg 40%
    03:00 +18°C° 0 mm 2 mps 757 mmHg 41%
    04:00 +18°C° 0 mm 2 mps 757 mmHg 42%
    05:00 +19°C° 0 mm 2 mps 757 mmHg 39%
    06:00 +21°C° 0 mm 3 mps 757 mmHg 37%
    07:00 +22°C° 0 mm 3 mps 758 mmHg 34%
    08:00 +26°C° 0 mm 3 mps 758 mmHg 30%
    09:00 +28°C° 0 mm 3 mps 758 mmHg 27%
    10:00 +31°C° 0 mm 3 mps 758 mmHg 23%
    11:00 +33°C° 0 mm 3 mps 758 mmHg 22%
    12:00 +34°C° 0 mm 3 mps 757 mmHg 21%
    13:00 +35°C° 0 mm 3 mps 757 mmHg 20%
    14:00 +36°C° 0 mm 2 mps 757 mmHg 19%
    15:00 +36°C° 0 mm 2 mps 756 mmHg 19%
    16:00 +36°C° 0 mm 2 mps 756 mmHg 19%
    17:00 +32°C° 0 mm 2 mps 756 mmHg 22%
    18:00 +30°C° 0 mm 2 mps 756 mmHg 25%
    19:00 +28°C° 0 mm 2 mps 756 mmHg 28%
    20:00 +27°C° 0 mm 2 mps 756 mmHg 30%
    21:00 +26°C° 0 mm 3 mps 756 mmHg 32%
    22:00 +25°C° 0 mm 3 mps 757 mmHg 33%
    23:00 +24°C° 0 mm 3 mps 757 mmHg 34%

    26 August, Saturday

    Time Temperature Precipitation Wind Pressure Humidity
    00:00 +24°C° 0 mm 3 mps 757 mmHg 35%
    01:00 +22°C° 0 mm 3 mps 757 mmHg 37%
    02:00 +21°C° 0 mm 2 mps 757 mmHg 37%
    03:00 +21°C° 0 mm 2 mps 757 mmHg 37%
    04:00 +20°C° 0 mm 2 mps 757 mmHg 37%
    05:00 +23°C° 0 mm 2 mps 757 mmHg 35%
    06:00 +24°C° 0 mm 2 mps 757 mmHg 33%
    07:00 +25°C° 0 mm 2 mps 757 mmHg 30%
    08:00 +28°C° 0 mm 2 mps 757 mmHg 27%
    09:00 +30°C° 0 mm 2 mps 757 mmHg 23%
    10:00 +34°C° 0 mm 2 mps 757 mmHg 19%
    11:00 +35°C° 0 mm 2 mps 757 mmHg 18%
    12:00 +36°C° 0 mm 2 mps 756 mmHg 17%
    13:00 +37°C° 0 mm 2 mps 756 mmHg 15%
    14:00 +37°C° 0 mm 2 mps 756 mmHg 15%
    15:00 +37°C° 0 mm 2 mps 755 mmHg 15%
    16:00 +37°C° 0 mm 2 mps 755 mmHg 15%
    17:00 +35°C° 0 mm 2 mps 755 mmHg 17%
    18:00 +31°C° 0 mm 2 mps 755 mmHg 20%
    19:00 +29°C° 0 mm 1 mps 755 mmHg 23%
    20:00 +28°C° 0 mm 2 mps 755 mmHg 25%
    21:00 +27°C° 0 mm 2 mps 755 mmHg 27%
    22:00 +26°C° 0 mm 2 mps 755 mmHg 29%
    23:00 +25°C° 0 mm 2 mps 755 mmHg 31%
    Show more